Weather History for Danville, KY

Change the Weather History Date:

Sunday, June 16, 2013

  Actual Average (KLEX) Record (KLEX)
Temperature  
Mean Temperature 73 °F 73 °F  
Max Temperature 82 °F 83 °F 96 °F (1952)
Min Temperature 64 °F 63 °F 43 °F (1917)
Degree Days  
Heating Degree Days 0 0  
Month to date heating degree days 8  
Since 1 June heating degree days 8  
Since 1 July heating degree days 4608  
Cooling Degree Days 8 8  
Month to date cooling degree days 105  
Year to date cooling degree days 212  
Since 1 June cooling degree days 105  
Growing Degree Days 23 (Base 50)    
Moisture  
Dew Point 64 °F    
Average Humidity 80    
Maximum Humidity 100    
Minimum Humidity 58    
Precipitation  
Precipitation 0.00 in 0.15 in 1.70 in (2003)
Month to date precipitation 2.54  
Year to date precipitation 21.87  
Snow  
Snow 0.00 in 0.00 in - ()
Month to date snowfall 0.0  
Since 1 June snowfall 0.0  
Since 1 July snowfall 13.0  
Snow Depth -    
Sea Level Pressure  
Sea Level Pressure 30.06 in    
Wind  
Wind Speed 4 mph (SW)    
Max Wind Speed 10 mph    
Max Gust Speed 13 mph    
Visibility 10 miles    
Events Rain    
T = Trace of Precipitation, MM = Missing Value Source: NWS Daily Summary

Daily Weather History Graph

Daily Weather History Graph

Search for Another Location

Airport:

Trip Planner

Search our weather history database for the weather conditions in past years. The results will help you decide how hot, cold, wet, or windy it might be!

Date:

Astronomy

Jun. 16, 2013 Rise Set
Actual Time 6:17 AM EDT 9:02 PM EDT
Civil Twilight 5:46 AM EDT 9:33 PM EDT
Nautical Twilight 5:07 AM EDT 10:12 PM EDT
Astronomical Twilight 4:22 AM EDT 10:56 PM EDT
Moon 1:44 PM EDT (6/16) 1:14 AM EDT (6/16)
Length of Visible Light 15h 47m
Length of Day
14h 45m
Waxing Crescent, 49% of the Moon is Illuminated
Jun 16
Waxing Crescent
Jun 16
First Quarter
Jun 23
Full
Jun 30
Last Quarter
Jul 8
New

Hourly Weather History & Observations

Time (EDT) Temp. Heat Index Dew Point Humidity Pressure Visibility Wind Dir Wind Speed Gust Speed Precip Events Conditions
12:15 AM 66.2 °F - 60.8 °F 83% 30.06 in 10.0 mi Calm Calm - N/A   Clear
12:35 AM 66.2 °F - 60.8 °F 83% 30.06 in 10.0 mi Calm Calm - N/A   Clear
12:55 AM 64.4 °F - 60.8 °F 88% 30.06 in 10.0 mi SW 3.5 mph - N/A   Clear
1:15 AM 64.4 °F - 60.8 °F 88% 30.06 in 10.0 mi Calm Calm - N/A   Clear
1:35 AM 64.4 °F - 60.8 °F 88% 30.06 in 10.0 mi WSW 3.5 mph - N/A   Clear
1:55 AM 64.4 °F - 60.8 °F 88% 30.06 in 10.0 mi SW 3.5 mph - N/A   Clear
2:15 AM 64.4 °F - 59.0 °F 83% 30.07 in 10.0 mi SSW 4.6 mph - N/A   Clear
2:35 AM 64.4 °F - 59.0 °F 83% 30.07 in 10.0 mi SSW 3.5 mph - N/A   Clear
2:55 AM 64.4 °F - 60.8 °F 88% 30.06 in 10.0 mi SSW 3.5 mph - N/A   Clear
3:15 AM 66.2 °F - 60.8 °F 83% 30.06 in 10.0 mi South 3.5 mph - N/A   Clear
3:35 AM 66.2 °F - 60.8 °F 83% 30.06 in 10.0 mi SSW 4.6 mph - N/A   Clear
3:55 AM 64.4 °F - 60.8 °F 88% 30.06 in 10.0 mi South 3.5 mph - N/A   Clear
4:15 AM 64.4 °F - 60.8 °F 88% 30.05 in 10.0 mi South 4.6 mph - N/A   Clear
4:35 AM 64.4 °F - 60.8 °F 88% 30.05 in 10.0 mi SSW 4.6 mph - N/A   Clear
4:55 AM 64.4 °F - 60.8 °F 88% 30.05 in 10.0 mi SSW 5.8 mph - N/A   Clear
5:15 AM 64.4 °F - 60.8 °F 88% 30.05 in 10.0 mi SSW 5.8 mph - N/A   Clear
5:35 AM 64.4 °F - 60.8 °F 88% 30.05 in 10.0 mi SSW 5.8 mph - N/A   Clear
5:55 AM 64.4 °F - 60.8 °F 88% 30.05 in 10.0 mi SSW 5.8 mph - N/A   Clear
6:15 AM 64.4 °F - 60.8 °F 88% 30.06 in 10.0 mi SSW 4.6 mph - N/A   Clear
6:35 AM 64.4 °F - 60.8 °F 88% 30.06 in 10.0 mi SSW 5.8 mph - N/A   Clear
6:55 AM 64.4 °F - 60.8 °F 88% 30.07 in 10.0 mi SSW 4.6 mph - N/A   Clear
7:15 AM 66.2 °F - 62.6 °F 88% 30.07 in 10.0 mi SW 4.6 mph - N/A   Clear
7:35 AM 66.2 °F - 62.6 °F 88% 30.08 in 10.0 mi SSW 4.6 mph - N/A   Clear
7:55 AM 68.0 °F - 62.6 °F 83% 30.08 in 10.0 mi SSW 4.6 mph - N/A   Clear
8:15 AM 68.0 °F - 62.6 °F 83% 30.09 in 10.0 mi SSW 4.6 mph - N/A   Clear
8:35 AM 69.8 °F - 64.4 °F 83% 30.10 in 10.0 mi SSW 4.6 mph - N/A   Clear
8:55 AM 71.6 °F - 64.4 °F 78% 30.09 in 10.0 mi SSW 3.5 mph - N/A   Clear
9:15 AM 73.4 °F - 64.4 °F 73% 30.10 in 10.0 mi SSW 6.9 mph - N/A   Clear
9:35 AM 73.4 °F - 64.4 °F 73% 30.10 in 10.0 mi SW 5.8 mph - N/A   Clear
9:55 AM 77.0 °F - 64.4 °F 65% 30.10 in 10.0 mi SW 8.1 mph - N/A   Clear
10:15 AM 75.2 °F - 64.4 °F 69% 30.11 in 10.0 mi SW 9.2 mph - N/A   Scattered Clouds
10:35 AM 75.2 °F - 64.4 °F 69% 30.10 in 10.0 mi SW 6.9 mph - N/A   Scattered Clouds
10:55 AM 77.0 °F - 64.4 °F 65% 30.10 in 10.0 mi WSW 9.2 mph - N/A   Scattered Clouds
11:15 AM 77.0 °F - 66.2 °F 69% 30.10 in 10.0 mi WSW 8.1 mph - N/A   Scattered Clouds
11:35 AM 77.0 °F - 64.4 °F 65% 30.09 in 10.0 mi WSW 4.6 mph - N/A   Mostly Cloudy
11:55 AM 77.0 °F - 66.2 °F 69% 30.09 in 10.0 mi West 5.8 mph - N/A Rain Light Rain
12:15 PM 77.0 °F - 66.2 °F 69% 30.09 in 10.0 mi West 6.9 mph - N/A   Scattered Clouds
12:35 PM 78.8 °F - 66.2 °F 65% 30.07 in 10.0 mi WSW 5.8 mph - N/A   Clear
12:55 PM 80.6 °F 82.7 °F 66.2 °F 61% 30.07 in 10.0 mi West 6.9 mph - N/A   Clear
1:15 PM 82.4 °F 84.6 °F 66.2 °F 58% 30.07 in 10.0 mi SW 9.2 mph - N/A   Clear
1:35 PM 80.6 °F 82.7 °F 66.2 °F 61% 30.06 in 10.0 mi SW 8.1 mph - N/A   Scattered Clouds
1:55 PM 82.4 °F 85.4 °F 68.0 °F 62% 30.05 in 10.0 mi WSW 8.1 mph - N/A   Clear
2:15 PM 82.4 °F 84.6 °F 66.2 °F 58% 30.05 in 10.0 mi WSW 5.8 mph - N/A   Clear
2:35 PM 82.4 °F 84.6 °F 66.2 °F 58% 30.05 in 10.0 mi SSW 8.1 mph - N/A   Scattered Clouds
2:55 PM 82.4 °F 85.4 °F 68.0 °F 62% 30.05 in 10.0 mi WSW 10.4 mph - N/A   Scattered Clouds
3:15 PM 82.4 °F 85.4 °F 68.0 °F 62% 30.04 in 10.0 mi WSW 8.1 mph - N/A   Scattered Clouds
3:35 PM 82.4 °F 84.6 °F 66.2 °F 58% 30.04 in 10.0 mi West 8.1 mph - N/A   Clear
3:55 PM 80.6 °F 83.2 °F 68.0 °F 65% 30.03 in 10.0 mi WSW 6.9 mph - N/A   Scattered Clouds
4:15 PM 80.6 °F 83.2 °F 68.0 °F 65% 30.04 in 10.0 mi WSW 5.8 mph - N/A   Scattered Clouds
4:35 PM 78.8 °F - 68.0 °F 69% 30.03 in 10.0 mi SW 6.9 mph - N/A   Mostly Cloudy
4:55 PM 77.0 °F - 69.8 °F 78% 30.04 in 10.0 mi WSW 6.9 mph - N/A Rain Rain
5:15 PM 75.2 °F - 69.8 °F 83% 30.03 in 10.0 mi Calm Calm - N/A   Mostly Cloudy
5:35 PM 75.2 °F - 69.8 °F 83% 30.02 in 10.0 mi SSW 4.6 mph - N/A   Scattered Clouds
5:55 PM 77.0 °F - 69.8 °F 78% 30.02 in 10.0 mi WSW 3.5 mph - N/A   Clear
6:15 PM 77.0 °F - 69.8 °F 78% 30.02 in 10.0 mi West 4.6 mph - N/A   Scattered Clouds
6:35 PM 77.0 °F - 69.8 °F 78% 30.02 in 10.0 mi West 4.6 mph - N/A   Scattered Clouds
6:55 PM 77.0 °F - 69.8 °F 78% 30.02 in 10.0 mi Calm Calm - N/A   Clear
7:15 PM 77.0 °F - 69.8 °F 78% 30.02 in 10.0 mi WNW 3.5 mph - N/A   Scattered Clouds
7:35 PM 75.2 °F - 69.8 °F 83% 30.03 in 10.0 mi Calm Calm - N/A   Mostly Cloudy
7:55 PM 68.0 °F - 64.4 °F 88% 30.05 in 10.0 mi NW 8.1 mph 12.7 mph N/A Rain Rain
8:15 PM 66.2 °F - 64.4 °F 94% 30.04 in 5.0 mi Calm Calm - N/A Rain Rain
8:35 PM 66.2 °F - 64.4 °F 94% 30.04 in 3.0 mi Calm Calm - N/A Rain Light Rain
8:55 PM 66.2 °F - 64.4 °F 94% 30.04 in 10.0 mi Calm Calm - N/A Rain Rain
9:15 PM 64.4 °F - 64.4 °F 100% 30.04 in 10.0 mi Calm Calm - N/A   Scattered Clouds
9:35 PM 64.4 °F - 64.4 °F 100% 30.04 in 10.0 mi Calm Calm - N/A   Clear
9:55 PM 66.2 °F - 64.4 °F 94% 30.05 in 10.0 mi SW 3.5 mph - N/A   Clear
10:15 PM 64.4 °F - 64.4 °F 100% 30.03 in 10.0 mi South 3.5 mph - N/A   Clear
10:35 PM 64.4 °F - 64.4 °F 100% 30.03 in 7.0 mi Calm Calm - N/A   Clear
10:55 PM 64.4 °F - 64.4 °F 100% 30.03 in 7.0 mi Calm Calm - N/A   Clear
11:15 PM 64.4 °F - 64.4 °F 100% 30.03 in 5.0 mi SSW 3.5 mph - N/A   Clear
11:35 PM 64.4 °F - 64.4 °F 100% 30.03 in 5.0 mi SSW 3.5 mph - N/A   Clear
11:55 PM 64.4 °F - 64.4 °F 100% 30.03 in 5.0 mi Calm Calm - N/A   Clear